Time,TemperatureF,DewpointF,PressureIn,WindDirection,WindDirectionDegrees,WindSpeedMPH,WindSpeedGustMPH,Humidity,HourlyPrecipIn,Conditions,Clouds,dailyrainin,SoftwareType,DateUTC
2013-02-22 00:14:00,12.6,11.0,30.40,ESE,109,0.0,2.0,93,0.00,,,0.00,weatherlink.com 1.10,2013-02-22 05:14:00,
2013-02-22 00:29:00,13.9,12.0,30.40,South,177,0.0,6.0,92,0.00,,,0.00,weatherlink.com 1.10,2013-02-22 05:29:00,
2013-02-22 00:44:00,14.2,12.0,30.39,NE,48,4.0,7.0,90,0.00,,,0.00,weatherlink.com 1.10,2013-02-22 05:44:00,
2013-02-22 00:59:00,14.3,12.0,30.39,NE,43,5.0,7.0,89,0.00,,,0.00,weatherlink.com 1.10,2013-02-22 05:59:00,
2013-02-22 01:14:00,14.8,12.0,30.39,NNE,22,3.0,13.0,89,0.00,,,0.00,weatherlink.com 1.10,2013-02-22 06:14:00,
2013-02-22 01:29:00,14.8,12.0,30.38,NE,39,2.0,13.0,88,0.00,,,0.00,weatherlink.com 1.10,2013-02-22 06:29:00,
2013-02-22 01:44:00,14.9,12.0,30.38,East,100,2.0,13.0,87,0.00,,,0.00,weatherlink.com 1.10,2013-02-22 06:44:00,
2013-02-22 01:59:00,14.9,12.0,30.37,ENE,74,9.0,14.0,87,0.00,,,0.00,weatherlink.com 1.10,2013-02-22 06:59:00,
2013-02-22 02:14:00,14.7,12.0,30.37,NNE,18,8.0,12.0,87,0.00,,,0.00,weatherlink.com 1.10,2013-02-22 07:14:00,
2013-02-22 02:30:00,14.5,11.0,30.37,ENE,77,4.0,12.0,87,0.00,,,0.00,weatherlink.com 1.10,2013-02-22 07:30:00,
2013-02-22 02:44:00,14.3,11.0,30.38,East,101,6.0,12.0,87,0.00,,,0.00,weatherlink.com 1.10,2013-02-22 07:44:00,
2013-02-22 02:59:00,14.1,11.0,30.36,NNE,21,4.0,11.0,87,0.00,,,0.00,weatherlink.com 1.10,2013-02-22 07:59:00,
2013-02-22 03:14:00,13.9,11.0,30.36,NE,36,5.0,13.0,88,0.00,,,0.00,weatherlink.com 1.10,2013-02-22 08:14:00,
2013-02-22 03:29:00,13.6,11.0,30.36,ENE,74,8.0,17.0,88,0.00,,,0.00,weatherlink.com 1.10,2013-02-22 08:29:00,
2013-02-22 03:44:00,13.3,10.0,30.36,SE,141,2.0,21.0,88,0.00,,,0.00,weatherlink.com 1.10,2013-02-22 08:44:00,
2013-02-22 03:59:00,13.0,10.0,30.35,East,86,13.0,20.0,88,0.00,,,0.00,weatherlink.com 1.10,2013-02-22 08:59:00,
2013-02-22 04:15:00,12.6,10.0,30.34,North,4,5.0,14.0,88,0.00,,,0.00,weatherlink.com 1.10,2013-02-22 09:15:00,
2013-02-22 04:30:00,12.3,9.0,30.34,East,81,11.0,15.0,88,0.00,,,0.00,weatherlink.com 1.10,2013-02-22 09:30:00,
2013-02-22 04:45:00,12.0,9.0,30.33,ENE,60,7.0,12.0,88,0.00,,,0.00,weatherlink.com 1.10,2013-02-22 09:45:00,
2013-02-22 05:00:00,11.7,9.0,30.33,ENE,68,6.0,14.0,88,0.00,,,0.00,weatherlink.com 1.10,2013-02-22 10:00:00,
2013-02-22 05:15:00,11.4,9.0,30.32,East,89,5.0,16.0,88,0.00,,,0.00,weatherlink.com 1.10,2013-02-22 10:15:00,
2013-02-22 05:30:00,11.2,9.0,30.32,NNE,23,5.0,13.0,89,0.00,,,0.00,weatherlink.com 1.10,2013-02-22 10:30:00,
2013-02-22 05:45:00,11.1,9.0,30.31,East,88,4.0,12.0,89,0.00,,,0.00,weatherlink.com 1.10,2013-02-22 10:45:00,
2013-02-22 06:00:00,10.9,8.0,30.31,NNW,342,3.0,12.0,89,0.00,,,0.00,weatherlink.com 1.10,2013-02-22 11:00:00,
2013-02-22 06:15:00,10.8,8.0,30.30,SE,127,6.0,15.0,88,0.00,,,0.00,weatherlink.com 1.10,2013-02-22 11:15:00,
2013-02-22 06:30:00,10.6,8.0,30.30,East,94,10.0,12.0,88,0.00,,,0.00,weatherlink.com 1.10,2013-02-22 11:30:00,
2013-02-22 06:45:00,10.5,8.0,30.29,ENE,60,4.0,13.0,88,0.00,,,0.00,weatherlink.com 1.10,2013-02-22 11:45:00,
2013-02-22 07:00:00,10.3,8.0,30.29,ENE,67,5.0,12.0,88,0.00,,,0.00,weatherlink.com 1.10,2013-02-22 12:00:00,
2013-02-22 07:15:00,10.2,7.0,30.29,East,82,6.0,14.0,88,0.00,,,0.00,weatherlink.com 1.10,2013-02-22 12:15:00,
2013-02-22 07:31:00,10.2,7.0,30.28,NE,53,5.0,13.0,88,0.00,,,0.00,weatherlink.com 1.10,2013-02-22 12:31:00,
2013-02-22 07:45:00,10.2,7.0,30.27,ENE,78,5.0,15.0,88,0.00,,,0.00,weatherlink.com 1.10,2013-02-22 12:45:00,
2013-02-22 08:00:00,10.3,8.0,30.27,ESE,116,6.0,19.0,89,0.00,,,0.00,weatherlink.com 1.10,2013-02-22 13:00:00,
2013-02-22 08:15:00,10.3,8.0,30.27,NNE,19,4.0,14.0,89,0.00,,,0.00,weatherlink.com 1.10,2013-02-22 13:15:00,
2013-02-22 08:30:00,10.3,8.0,30.27,NNE,23,2.0,16.0,89,0.00,,,0.00,weatherlink.com 1.10,2013-02-22 13:30:00,
2013-02-22 08:45:00,10.4,8.0,30.25,East,91,6.0,16.0,89,0.00,,,0.00,weatherlink.com 1.10,2013-02-22 13:45:00,
2013-02-22 09:00:00,10.5,8.0,30.24,East,82,7.0,13.0,89,0.00,,,0.00,weatherlink.com 1.10,2013-02-22 14:00:00,
2013-02-22 09:16:00,10.7,8.0,30.23,ENE,63,10.0,16.0,89,0.00,,,0.00,weatherlink.com 1.10,2013-02-22 14:16:00,
2013-02-22 09:31:00,11.0,8.0,30.22,NE,44,9.0,18.0,89,0.00,,,0.00,weatherlink.com 1.10,2013-02-22 14:31:00,
2013-02-22 09:46:00,11.3,9.0,30.20,NE,49,3.0,14.0,89,0.00,,,0.00,weatherlink.com 1.10,2013-02-22 14:46:00,
2013-02-22 10:01:00,11.5,9.0,30.20,East,92,11.0,14.0,89,0.00,,,0.00,weatherlink.com 1.10,2013-02-22 15:01:00,
2013-02-22 10:16:00,11.7,9.0,30.19,East,86,9.0,15.0,88,0.00,,,0.00,weatherlink.com 1.10,2013-02-22 15:16:00,
2013-02-22 10:31:00,11.9,9.0,30.18,ENE,60,7.0,16.0,88,0.00,,,0.00,weatherlink.com 1.10,2013-02-22 15:31:00,
2013-02-22 10:46:00,12.1,10.0,30.17,NE,56,13.0,16.0,89,0.00,,,0.00,weatherlink.com 1.10,2013-02-22 15:46:00,
2013-02-22 11:01:00,12.3,9.0,30.16,NE,51,6.0,15.0,88,0.00,,,0.00,weatherlink.com 1.10,2013-02-22 16:01:00,
2013-02-22 11:16:00,12.9,10.0,30.16,East,79,10.0,20.0,88,0.00,,,0.00,weatherlink.com 1.10,2013-02-22 16:16:00,
2013-02-22 11:31:00,13.3,10.0,30.14,ENE,76,2.0,17.0,87,0.00,,,0.00,weatherlink.com 1.10,2013-02-22 16:31:00,
2013-02-22 11:46:00,13.7,11.0,30.14,ENE,76,3.0,15.0,87,0.00,,,0.00,weatherlink.com 1.10,2013-02-22 16:46:00,
2013-02-22 12:01:00,14.1,11.0,30.13,East,86,7.0,16.0,88,0.00,,,0.00,weatherlink.com 1.10,2013-02-22 17:01:00,
2013-02-22 12:16:00,14.4,12.0,30.13,East,86,7.0,14.0,88,0.00,,,0.00,weatherlink.com 1.10,2013-02-22 17:16:00,
2013-02-22 12:32:00,14.9,12.0,30.12,ESE,103,9.0,18.0,88,0.00,,,0.00,weatherlink.com 1.10,2013-02-22 17:32:00,
2013-02-22 12:47:00,15.3,12.0,30.12,ENE,71,7.0,17.0,88,0.00,,,0.00,weatherlink.com 1.10,2013-02-22 17:47:00,
2013-02-22 13:02:00,15.7,13.0,30.10,East,84,6.0,14.0,88,0.00,,,0.00,weatherlink.com 1.10,2013-02-22 18:02:00,
2013-02-22 13:17:00,15.8,13.0,30.10,NE,51,9.0,21.0,89,0.00,,,0.00,weatherlink.com 1.10,2013-02-22 18:17:00,
2013-02-22 13:32:00,16.0,14.0,30.09,NE,37,5.0,16.0,90,0.00,,,0.00,weatherlink.com 1.10,2013-02-22 18:32:00,
2013-02-22 13:47:00,16.4,14.0,30.08,East,81,2.0,16.0,91,0.00,,,0.00,weatherlink.com 1.10,2013-02-22 18:47:00,
2013-02-22 14:02:00,16.9,15.0,30.07,ENE,74,7.0,16.0,91,0.00,,,0.00,weatherlink.com 1.10,2013-02-22 19:02:00,
2013-02-22 14:17:00,17.6,16.0,30.06,ENE,71,3.0,18.0,91,0.00,,,0.00,weatherlink.com 1.10,2013-02-22 19:17:00,
2013-02-22 14:32:00,18.3,16.0,30.04,ESE,110,2.0,14.0,92,0.00,,,0.00,weatherlink.com 1.10,2013-02-22 19:32:00,
2013-02-22 14:47:00,19.2,17.0,30.03,East,90,12.0,17.0,92,0.00,,,0.00,weatherlink.com 1.10,2013-02-22 19:47:00,
2013-02-22 15:02:00,19.8,18.0,30.03,East,81,1.0,16.0,92,0.00,,,0.00,weatherlink.com 1.10,2013-02-22 20:02:00,
2013-02-22 15:17:00,20.4,19.0,30.02,ESE,107,3.0,15.0,92,0.00,,,0.00,weatherlink.com 1.10,2013-02-22 20:17:00,
2013-02-22 15:32:00,20.5,19.0,30.02,NNE,17,9.0,15.0,92,0.00,,,0.00,weatherlink.com 1.10,2013-02-22 20:32:00,
2013-02-22 15:47:00,20.6,19.0,30.01,North,8,6.0,21.0,92,0.00,,,0.00,weatherlink.com 1.10,2013-02-22 20:47:00,
2013-02-22 16:03:00,20.8,19.0,30.01,ESE,113,12.0,19.0,92,0.00,,,0.00,weatherlink.com 1.10,2013-02-22 21:03:00,
2013-02-22 16:18:00,21.0,19.0,30.01,NE,45,3.0,13.0,93,0.00,,,0.00,weatherlink.com 1.10,2013-02-22 21:18:00,
2013-02-22 16:33:00,21.4,20.0,30.00,NE,54,10.0,13.0,93,0.00,,,0.00,weatherlink.com 1.10,2013-02-22 21:33:00,
2013-02-22 16:48:00,21.6,20.0,30.00,ENE,63,7.0,13.0,93,0.00,,,0.00,weatherlink.com 1.10,2013-02-22 21:48:00,
2013-02-22 17:03:00,21.8,20.0,29.99,North,358,2.0,18.0,93,0.00,,,0.00,weatherlink.com 1.10,2013-02-22 22:03:00,
2013-02-22 17:18:00,22.0,20.0,29.98,ENE,65,2.0,14.0,93,0.00,,,0.00,weatherlink.com 1.10,2013-02-22 22:18:00,
2013-02-22 17:33:00,22.2,21.0,29.98,East,95,2.0,14.0,93,0.00,,,0.00,weatherlink.com 1.10,2013-02-22 22:33:00,
2013-02-22 17:48:00,22.3,21.0,29.97,ENE,71,9.0,15.0,93,0.00,,,0.00,weatherlink.com 1.10,2013-02-22 22:48:00,
2013-02-22 18:03:00,22.4,21.0,29.97,NE,56,7.0,11.0,93,0.00,,,0.00,weatherlink.com 1.10,2013-02-22 23:03:00,
2013-02-22 18:18:00,22.5,21.0,29.96,ENE,71,6.0,11.0,93,0.00,,,0.00,weatherlink.com 1.10,2013-02-22 23:18:00,
2013-02-22 18:33:00,22.7,21.0,29.96,NE,47,4.0,12.0,93,0.00,,,0.00,weatherlink.com 1.10,2013-02-22 23:33:00,
2013-02-22 18:48:00,23.0,21.0,29.96,North,11,2.0,14.0,93,0.00,,,0.00,weatherlink.com 1.10,2013-02-22 23:48:00,
2013-02-22 19:03:00,23.2,22.0,29.96,NNE,23,2.0,12.0,93,0.00,,,0.00,weatherlink.com 1.10,2013-02-23 00:03:00,
2013-02-22 19:19:00,23.4,22.0,29.95,NE,49,7.0,12.0,94,0.00,,,0.00,weatherlink.com 1.10,2013-02-23 00:19:00,
2013-02-22 19:34:00,23.7,22.0,29.95,NE,44,7.0,11.0,94,0.00,,,0.00,weatherlink.com 1.10,2013-02-23 00:34:00,
2013-02-22 19:49:00,24.0,23.0,29.94,ENE,71,7.0,11.0,94,0.00,,,0.00,weatherlink.com 1.10,2013-02-23 00:49:00,
2013-02-22 20:04:00,24.3,23.0,29.93,East,89,1.0,13.0,94,0.00,,,0.00,weatherlink.com 1.10,2013-02-23 01:04:00,
2013-02-22 20:19:00,24.6,23.0,29.93,East,101,5.0,15.0,94,0.00,,,0.00,weatherlink.com 1.10,2013-02-23 01:19:00,
2013-02-22 20:34:00,24.8,23.0,29.93,East,93,10.0,14.0,94,0.00,,,0.00,weatherlink.com 1.10,2013-02-23 01:34:00,
2013-02-22 20:49:00,25.1,24.0,29.92,ENE,68,9.0,12.0,94,0.00,,,0.00,weatherlink.com 1.10,2013-02-23 01:49:00,
2013-02-22 21:04:00,25.2,24.0,29.92,NE,46,1.0,13.0,94,0.00,,,0.00,weatherlink.com 1.10,2013-02-23 02:04:00,
2013-02-22 21:19:00,25.3,24.0,29.91,East,95,9.0,11.0,94,0.00,,,0.00,weatherlink.com 1.10,2013-02-23 02:19:00,
2013-02-22 21:34:00,25.4,24.0,29.90,NE,47,9.0,14.0,94,0.00,,,0.00,weatherlink.com 1.10,2013-02-23 02:34:00,
2013-02-22 21:49:00,25.5,24.0,29.89,NE,56,5.0,13.0,94,0.00,,,0.00,weatherlink.com 1.10,2013-02-23 02:49:00,
2013-02-22 22:04:00,25.7,24.0,29.88,NE,39,2.0,13.0,94,0.00,,,0.00,weatherlink.com 1.10,2013-02-23 03:04:00,
2013-02-22 22:19:00,25.8,24.0,29.88,NE,44,4.0,16.0,94,0.00,,,0.00,weatherlink.com 1.10,2013-02-23 03:19:00,
2013-02-22 22:35:00,26.0,25.0,29.87,East,99,6.0,12.0,94,0.00,,,0.00,weatherlink.com 1.10,2013-02-23 03:35:00,
2013-02-22 22:50:00,26.0,25.0,29.87,ESE,103,7.0,13.0,94,0.00,,,0.00,weatherlink.com 1.10,2013-02-23 03:50:00,
2013-02-22 23:05:00,26.1,25.0,29.87,ENE,60,3.0,10.0,94,0.00,,,0.00,weatherlink.com 1.10,2013-02-23 04:05:00,
2013-02-22 23:20:00,26.2,25.0,29.86,East,86,2.0,10.0,94,0.00,,,0.00,weatherlink.com 1.10,2013-02-23 04:20:00,
2013-02-22 23:35:00,26.3,25.0,29.86,NE,51,7.0,9.0,94,0.00,,,0.00,weatherlink.com 1.10,2013-02-23 04:35:00,
2013-02-22 23:50:00,26.3,25.0,29.86,SE,134,2.0,7.0,94,0.00,,,0.00,weatherlink.com 1.10,2013-02-23 04:50:00,